Regional Weather Roundup
Issued by NWS Upton, NY

Current Version | Previous Version | Text Only | Print | Product List | Glossary On
Versions: 1 2 3 4 5 6 7 8 9 10 11 12 13 14 15 16 17 18 19 20 21 22 23 24 25 26 27 28 29 30 31 32 33 34 35 36 37 38 39 40 41 42 43 44 45 46 47 48 49 50
000
ASUS41 KOKX 230809
RWROKX

REGIONAL WEATHER ROUNDUP
NATIONAL WEATHER SERVICE NEW YORK NY
300 AM EST THU NOV 23 2017

NOTE: "FAIR" INDICATES FEW OR NO CLOUDS BELOW 12,000 FEET WITH NO
SIGNIFICANT WEATHER AND/OR OBSTRUCTIONS TO VISIBILITY.

NYZ071-072-176-178-NJZ106-104-230900-
NEW YORK CITY METRO AREA

CITY           SKY/WX    TMP DP  RH WIND       PRES   REMARKS
Central Park   CLEAR     33  19  56 NW8       30.12R WCI  26
Bronx Bot Gard   N/A     32  19  59 N5        30.10S WCI  27
Bronx Lehman C   N/A     32  32 100 NW9         N/A  WCI  24
LaGuardia APRT CLEAR     35  21  56 NW20      30.09S WCI  24
Queens College   N/A     34  32  93 NW12        N/A  WCI  25
Kennedy INTL   CLEAR     33  20  58 NW15      30.10S WCI  23
Breezy Point     N/A     34 N/A N/A NW15G22     N/A  WCI  24
Brooklyn Coll    N/A     34  32  93 NW15        N/A  WCI  24
Staten Island    N/A     32  32 100 NW12        N/A  WCI  23
Newark/Liberty CLEAR     33  19  56 NW14      30.11S WCI  23
Teterboro      CLEAR     32  19  58 NW9       30.10R WCI  24
$$

NYZ177-179-078>081-230900-
LONG ISLAND NEW YORK

CITY           SKY/WX    TMP DP  RH WIND       PRES   REMARKS
Jones Beach      N/A     34 N/A N/A NW16        N/A  WCI  23
Wantagh          N/A     34  32  93 W10         N/A  WCI  26
Matinecock PT    N/A     36 N/A N/A NW21        N/A  WCI  24
Farmingdale    CLEAR     33  21  61 NW7       30.07S WCI  27
MacArthur/ISP  CLEAR     34  24  67 NW10      30.05S WCI  26
Shirley        CLEAR     33  26  75 NW5       30.06R WCI  29
Mt Sinai Harb    N/A    N/A N/A N/A NW12G18     N/A
Westhampton    CLEAR     35  24  64 NW7       30.06R WCI  29
East Hampton   FAIR      34  24  66 NW12G18   30.03R WCI  26
Southold         N/A     36  32  87 NW15        N/A  WCI  26
Montauk          N/A     39  25  57 NW15G22   30.03R WCI  31
$$

NYZ052-065-067-230900-
HUDSON VALLEY

CITY           SKY/WX    TMP DP  RH WIND       PRES   REMARKS
White Plains   CLEAR     31  20  63 VRB6      30.07R WCI  25
Larchmont Harb   N/A     32 N/A N/A W14         N/A  WCI  22
Croton On Huds   N/A     34 N/A N/A NW9         N/A  WCI  26
Somers           N/A     30  32 100 W2          N/A
Brewster         N/A     30  32 100 NW3         N/A
Newburgh       CLEAR     28  21  74 NW12      30.08R WCI  18
Montgomery     CLEAR     31  18  58 VRB3      30.09R
Suffern          N/A     32  32 100 W6          N/A  WCI  26
Poughkeepsie   CLEAR     30  18  60 NW7       30.08R WCI  23
Albany         CLOUDY    32  21  64 W10       30.10R WCI  24
$$

NJZ001-105-106-008-010-013-015-019>022-104-230900-
NEW JERSEY

CITY           SKY/WX    TMP DP  RH WIND       PRES   REMARKS
Newark/Liberty CLEAR     33  19  56 NW14      30.11S WCI  23
Teterboro      CLEAR     32  19  58 NW9       30.10R WCI  24
Caldwell       CLEAR     30  19  63 CALM      30.12R
Somerville     CLEAR     31  19  61 N7        30.10S WCI  24
Linden         FAIR      32  19  59 CALM      30.11F
Perth Amboy      N/A     32 N/A N/A NW12        N/A  WCI  23
Sussex         CLEAR     30  18  60 NW10G17   30.10R WCI  21
Andover          N/A     29  18  63 N8        30.10R WCI  21
Trenton        CLEAR     32  19  58 NW6       30.11R WCI  26
Millville      CLEAR     28  24  85 SW5       30.14R WCI  23
Atlantic City  CLEAR     30  23  75 NW6       30.12S WCI  24
Wrightstown    CLEAR     31  20  63 NW7       30.08S WCI  25
Toms River     CLEAR     30  22  72 NW5       30.12R WCI  25
Belmar         CLEAR     30  22  72 NW5       30.11R WCI  25
$$

PAZ047>061-062-071-230900-
EASTERN PENNSYLVANIA

CITY           SKY/WX    TMP DP  RH WIND       PRES   REMARKS
Philadelphia   CLEAR     35  20  54 NW9       30.15R WCI  28
Allentown      CLEAR     31  16  54 NW9       30.13F WCI  23
Scranton       CLOUDY    27  16  63 N6        30.12S WCI  20
$$

CTZ002-004>006-009-010-012-RIZ004-006-007-MAZ004-011-015-230900-
SOUTHERN NEW ENGLAND
 IN CT

CITY           SKY/WX    TMP DP  RH WIND       PRES   REMARKS
Bradley INTL   CLEAR     31  21  66 CALM      30.02F
Hartford       CLEAR     34  23  64 NW6       30.03F WCI  29
Danbury        CLEAR     32  22  66 CALM      30.07R
Wtrbury/Oxford CLOUDY    31  23  72 NW7       30.03R WCI  24
Norwalk Harbor   N/A     32 N/A N/A W12         N/A  WCI  23
Bridgeport     CLEAR     34  23  64 W6        30.07R WCI  29
Meriden        CLEAR     33  22  63 NW6       30.05R WCI  28
New Haven      CLEAR     36  23  59 NW6       30.05R WCI  31
Chester        FAIR      32  23  69 VRB5      30.02R WCI  27
Groton         CLEAR     34  21  59 NW7       30.03R WCI  28
Wilimantic     PTCLDY    34  21  59 NW8       30.01S WCI  27

 IN RI

CITY           SKY/WX    TMP DP  RH WIND       PRES   REMARKS
Providence     PTCLDY    34  25  69 W5        30.01R WCI  30
Block Island   CLEAR     36  25  64 NW9G20    30.01R WCI  29
Westerly       CLEAR     34  24  67 W3        30.02R
 IN MA

CITY           SKY/WX    TMP DP  RH WIND       PRES   REMARKS
Boston         PTCLDY    34  23  64 W15G22    29.97S WCI  24
Worcester      CLEAR     29  18  63 NW13      29.94F WCI  19
Westfield      CLEAR     30  20  66 NW5       30.02S WCI  25
Provincetown   CLEAR     38  27  64 NW22G30   29.95R WCI  27
Nantucket      PTCLDY    39  30  70 NW14G25   29.96R WCI  31
$$

ANZ330-335-338-340-345-350-353-355-230900-
COASTAL MARINE OBSERVATIONS


STATION/POSITION TIME  SKY/WX   TEMP    WIND        PRES    VSBY  WAVE
                                AIR SEA DIR/SP/G                  HT/PER
                 (UTC)          (F)     (DEG/KT/KT) (MB)    (MI)  (FT/S)
NY HARB ENTRANCE 0650            39 56  330/ 19/ 25 1017.4          3/ 4
20 S FIRE ISLAND 0650            40 56  330/ 17/ 23 1017.4          5/ 9
GREAT SOUTH BAY  0730            36 45  300/ 14/ 14   N/A
HUDSON CANYON    0650            44 58  330/ 16/ 21 1017.1          8/ 7
KINGS POINT      0736            35 49  360/ 14/ 18 1020.0
EXECUTION ROCKS  0715            36     280/ 12/ 17   N/A
WESTERN LI SOUND 0649            37     300/ 12/ 19   N/A           1/ 2
CENTRAL LI SOUND NOT AVBL
ROBBINS REEF     0748            34     320/ 13/ 18 1020.0
$$


>>>>>>>>>>>>>>>>>>>>>>>>>>>> KEY <<<<<<<<<<<<<<<<<<<<<<<<<<<
>                                                          <
>     SKY/WX - Sky Condition/Present Weather               <
>     TMP    - Temperature in Fahrenheit                   <
>     DP     - Dew Point in Fahrenheit                     <
>     RH     - Relative Humidity in Percent                <
>     WIND   - Direction (from) and Speed in MPH           <
>     PRES   - Mean Sea Level Pressure (inches of Hg)      <
>     WCI    - Wind Chill Index                            <
>     VSB    - VISIBILITY IN MILES                         <
>     HX     - HEAT INDEX                                  <
>     TC     - TEMPERATURE IN CELSIUS                      <
>     VRB    - VARIABLE WIND DIRECTION                     <
>                                                          <
>>>>>>>>>>>>>>>>>>>>>>>>>>>> KEY <<<<<<<<<<<<<<<<<<<<<<<<<<<



USA.gov is the U.S. government's official web portal to all federal, state and local government web resources and services.